User: anonymous   Login
Location: Unspecified
(0.0000°N, 0.0000°E)
Time: 07:10:08
(UTC+00:00)
Language:

SAR-Lupe-4 - Orbit

View from above orbital plane
View from above orbital plane
View from above satellite
View from above satellite

Ground track
Ground track

The orbit data is extracted from the following two-line orbital elements,

1 32750U 08014A   18221.96518511 0.00000700  00000-0  25897-4 0    05
2 32750  98.1203 313.5409 0003000 335.5867  24.4131 15.27715867    01
Epoch (UTC): 09 August 2018 23:09:51
Eccentricity: 0.0003000
inclination: 98.1203°
perigee height: 480 km
apogee height: 485 km
right ascension of ascending node: 313.5409°
argument of perigee: 335.5867°
revolutions per day: 15.27715867
mean anomaly at epoch: 24.4131°
orbit number at epoch: 0

The dashed part of the orbit path shows where the satellite is in the earth's shadow,  

DLR